DW4379 Weather Reports


time (UTC)temp
F
wind
direction
speed
knots
gust
knots
rain 1hr
in
rain 24hr
in
rain mn
in
humidity
%
barometer
mb
20260504013503 62 246 0.0 0.9 0.00 0.00 0.00 59 1009.1
20260504013003 62 0 0.0 0.0 0.00 0.00 0.00 58 1009.1
20260504012503 62 0 0.0 0.0 0.00 0.00 0.00 57 1009.0
20260504012003 62 91 0.0 0.9 0.00 0.00 0.00 57 1009.0
20260504011503 62 92 0.0 1.7 0.00 0.00 0.00 57 1009.0
20260504011003 62 92 0.0 1.7 0.00 0.00 0.00 57 1009.0
20260504010503 62 140 0.0 0.9 0.00 0.00 0.00 57 1009.1
20260504010218 62 233 0.0 1.7 0.00 0.00 0.00 57 1009.0
20260504005717 63 217 0.0 3.5 0.00 0.00 0.00 57 1009.0
20260504005004 63 233 0.0 3.5 0.00 0.00 0.00 57 1009.1
20260504004503 63 182 0.0 2.6 0.00 0.00 0.00 56 1009.1
20260504004003 63 175 0.0 2.6 0.00 0.00 0.00 56 1009.1
20260504003503 63 139 0.0 1.7 0.00 0.00 0.00 56 1009.1
20260504003218 63 135 0.0 2.6 0.00 0.00 0.00 56 1009.2
20260504002503 64 209 0.0 4.3 0.00 0.00 0.00 57 1009.1
20260504002003 64 186 0.9 4.3 0.00 0.00 0.00 55 1009.0
20260504001503 64 192 0.9 3.5 0.00 0.00 0.00 56 1009.1
20260504001003 64 163 0.9 3.5 0.00 0.00 0.00 55 1009.0
20260504000503 64 164 0.9 3.5 0.00 0.00 0.00 56 1008.9
20260504000003 64 217 0.9 3.5 0.00 0.00 0.00 56 1009.2
20260503235717 64 220 0.9 3.5 0.00 0.00 0.00 55 1009.1
20260503235003 64 165 0.9 2.6 0.00 0.00 0.00 56 1009.4
20260503234717 64 193 0.9 2.6 0.00 0.00 0.00 56 1009.3
20260503234003 64 221 0.0 1.7 0.00 0.00 0.00 56 1009.5
20260503233503 64 213 0.0 0.9 0.00 0.00 0.00 55 1009.7
20260503233003 64 169 0.0 0.9 0.00 0.00 0.00 55 1010.0
20260503232503 64 137 0.0 1.7 0.00 0.00 0.00 55 1010.0
20260503232217 64 113 0.0 3.5 0.00 0.00 0.00 55 1010.2
20260503231718 64 120 0.0 3.5 0.00 0.00 0.00 55 1010.0
20260503231003 64 189 0.9 3.5 0.00 0.00 0.00 54 1010.0
20260503230716 64 224 0.9 3.5 0.00 0.00 0.00 53 1009.9
20260503230003 64 193 0.0 3.5 0.00 0.00 0.00 53 1010.2
20260503225503 64 170 0.9 1.7 0.00 0.00 0.00 53 1010.4
20260503225003 64 212 0.9 4.3 0.00 0.00 0.00 53 1010.6
20260503224503 64 220 0.9 4.3 0.00 0.00 0.00 53 1010.6
20260503224217 64 223 0.9 2.6 0.00 0.00 0.00 53 1010.5
20260503223503 64 218 0.9 7.0 0.00 0.00 0.00 53 1010.5
20260503223217 64 210 0.9 7.0 0.00 0.00 0.00 53 1010.5
20260503222503 64 234 0.9 5.2 0.00 0.00 0.00 52 1010.6
20260503222003 64 219 0.0 3.5 0.00 0.00 0.00 53 1010.5
20260503221503 64 171 0.0 2.6 0.00 0.00 0.00 54 1010.5
20260503221003 64 158 0.9 4.3 0.00 0.00 0.00 54 1010.4
20260503220503 64 166 0.9 4.3 0.00 0.00 0.00 53 1010.2
20260503220003 64 185 0.9 6.1 0.00 0.00 0.00 53 1010.1
20260503215503 64 199 0.9 6.1 0.00 0.00 0.00 53 1010.0
20260503215003 64 193 0.9 3.5 0.00 0.00 0.00 55 1010.2
20260503214503 64 234 0.9 3.5 0.00 0.00 0.00 54 1010.3
20260503214217 64 247 0.9 2.6 0.00 0.00 0.00 53 1010.5
20260503213503 64 174 0.9 7.0 0.00 0.00 0.00 53 1010.7
20260503213003 64 217 0.9 7.0 0.00 0.00 0.00 52 1010.6
20260503212503 64 196 0.9 7.0 0.00 0.00 0.00 51 1010.6
20260503212003 64 195 1.7 4.3 0.00 0.00 0.00 52 1010.8
20260503211503 64 212 0.9 5.2 0.00 0.00 0.00 52 1010.9
20260503211003 64 210 0.9 5.2 0.00 0.00 0.00 52 1010.9
20260503210718 64 213 0.9 4.3 0.00 0.00 0.00 52 1011.1
20260503210004 63 223 1.7 6.1 0.00 0.00 0.00 51 1011.2
20260503205503 63 217 1.7 6.1 0.00 0.00 0.00 52 1011.4
20260503205003 63 227 1.7 5.2 0.00 0.00 0.00 51 1011.7
20260503204503 63 236 1.7 7.8 0.00 0.00 0.00 51 1011.6
20260503204003 63 215 0.9 7.8 0.00 0.00 0.00 51 1011.5
20260503203717 63 197 1.7 7.8 0.00 0.00 0.00 51 1011.8
20260503203003 63 133 1.7 12.2 0.00 0.00 0.00 51 1011.1
20260503202717 63 118 1.7 12.2 0.00 0.00 0.00 50 1011.1
20260503202003 63 117 0.9 4.3 0.00 0.00 0.00 53 1011.7
20260503201503 63 153 0.9 3.5 0.00 0.00 0.00 53 1012.1
20260503201003 63 208 0.9 4.3 0.00 0.00 0.00 51 1012.4
20260503200503 63 221 1.7 5.2 0.00 0.00 0.00 50 1013.0
20260503200004 63 203 1.7 5.2 0.00 0.00 0.00 51 1012.9
20260503195717 63 207 1.7 5.2 0.00 0.00 0.00 52 1013.0
20260503195003 63 240 1.7 7.0 0.00 0.00 0.00 51 1013.2
20260503194504 63 241 1.7 7.0 0.00 0.00 0.00 49 1013.3
20260503194218 63 244 1.7 7.0 0.00 0.00 0.00 50 1013.4
20260503193503 64 242 1.7 7.0 0.00 0.00 0.00 49 1013.5
20260503193003 64 247 1.7 7.0 0.00 0.00 0.00 49 1013.5
20260503192503 64 247 1.7 5.2 0.00 0.00 0.00 47 1013.5
20260503192004 64 247 1.7 6.1 0.00 0.00 0.00 47 1013.5
20260503191503 65 245 2.6 10.4 0.00 0.00 0.00 45 1013.3
20260503191003 65 243 2.6 10.4 0.00 0.00 0.00 45 1013.6
20260503190503 65 245 1.7 7.0 0.00 0.00 0.00 47 1013.4
20260503190003 65 245 2.6 7.0 0.00 0.00 0.00 46 1013.5
20260503185717 65 249 2.6 7.0 0.00 0.00 0.00 45 1013.6
20260503185003 66 185 1.7 6.1 0.00 0.00 0.00 47 1013.7
20260503184717 66 224 1.7 7.8 0.00 0.00 0.00 46 1013.7
20260503184003 66 245 1.7 7.8 0.00 0.00 0.00 45 1014.1
20260503174718 64 244 1.7 7.0 0.00 0.00 0.00 51 1015.2
20260503174003 64 239 1.7 8.7 0.00 0.00 0.00 51 1015.4
20260503173503 64 231 1.7 8.7 0.00 0.00 0.00 50 1015.7
20260503173003 64 205 1.7 7.0 0.00 0.00 0.00 50 1015.8
20260503172504 64 173 1.7 6.1 0.00 0.00 0.00 52 1015.8
20260503172003 64 181 1.7 6.1 0.00 0.00 0.00 51 1015.9
20260503171503 64 194 0.9 3.5 0.00 0.00 0.00 52 1015.9
20260503171003 64 211 1.7 6.1 0.00 0.00 0.00 52 1016.1
20260503170718 64 199 0.9 6.1 0.00 0.00 0.00 54 1016.0
20260503151003 57 247 1.7 7.8 0.00 0.00 0.00 58 1017.7
20260503150503 58 242 0.9 5.2 0.00 0.00 0.00 61 1017.8
20260503140218 54 214 0.0 4.3 0.00 0.00 0.00 71 1018.1
20260503131003 50 235 0.0 3.5 0.00 0.00 0.00 74 1017.9
20260503130503 49 202 0.9 3.5 0.00 0.00 0.00 74 1017.9
20260503110503 38 0 0.0 0.0 0.00 0.00 0.00 90 1017.7
20260503090503 37 0 0.0 0.0 0.00 0.00 0.00 90 1017.6
20260503081503 38 0 0.0 0.0 0.00 0.00 0.00 90 1017.6
20260503081003 38 0 0.0 0.0 0.00 0.00 0.00 90 1017.6
20260503080503 38 0 0.0 0.0 0.00 0.00 0.00 90 1017.6
20260503072718 39 0 0.0 0.0 0.00 0.00 0.00 89 1017.5
20260503072003 39 0 0.0 0.0 0.00 0.00 0.00 88 1017.5
20260503071503 39 0 0.0 0.0 0.00 0.00 0.00 88 1017.6
20260503071003 39 0 0.0 0.0 0.00 0.00 0.00 88 1017.6
20260503070503 39 0 0.0 0.0 0.00 0.00 0.00 88 1017.7
20260503055003 40 0 0.0 0.0 0.00 0.00 0.00 86 1018.0
20260503054503 40 0 0.0 0.0 0.00 0.00 0.00 86 1018.0
20260503054003 40 0 0.0 0.0 0.00 0.00 0.00 86 1018.0
20260503053718 40 0 0.0 0.0 0.00 0.00 0.00 86 1018.1
20260503053003 40 0 0.0 0.0 0.00 0.00 0.00 86 1018.0
20260503052718 40 0 0.0 0.0 0.00 0.00 0.00 85 1018.0
20260503052217 40 0 0.0 0.0 0.00 0.00 0.00 85 1018.0
20260503051503 40 0 0.0 0.0 0.00 0.00 0.00 85 1017.9
20260503051217 40 0 0.0 0.0 0.00 0.00 0.00 85 1017.9
20260503050718 41 0 0.0 0.0 0.00 0.00 0.00 84 1017.9
20260503050217 41 0 0.0 0.0 0.00 0.00 0.00 84 1018.0
20260503045503 41 0 0.0 0.0 0.00 0.00 0.00 83 1017.9
20260503045003 41 0 0.0 0.0 0.00 0.00 0.00 83 1018.0
20260503044503 41 0 0.0 0.0 0.00 0.00 0.00 83 1017.9
20260503044003 42 0 0.0 0.0 0.00 0.00 0.00 83 1018.0
20260503043503 42 0 0.0 0.0 0.00 0.00 0.00 82 1018.0
20260503043223 41 0 0.0 0.0 0.00 0.00 0.00 81 1018.0
20260503042503 41 0 0.0 0.0 0.00 0.00 0.00 80 1018.0
20260503042218 41 0 0.0 0.0 0.00 0.00 0.00 81 1018.0
20260503041503 41 0 0.0 0.0 0.00 0.00 0.00 80 1018.0
20260503041003 41 0 0.0 0.0 0.00 0.00 0.00 80 1018.0
20260503040503 41 0 0.0 0.0 0.00 0.00 0.00 80 1018.0
20260503040220 42 0 0.0 0.0 0.00 0.00 0.00 80 1018.1
20260503035717 42 0 0.0 0.0 0.00 0.00 0.00 79 1018.1
20260503035003 42 0 0.0 0.0 0.00 0.00 0.00 78 1018.1
20260503034503 42 0 0.0 0.0 0.00 0.00 0.00 77 1018.1
20260503034003 43 0 0.0 0.0 0.00 0.00 0.00 76 1018.0
20260503033503 43 0 0.0 0.0 0.00 0.00 0.00 75 1018.0
20260503033219 43 0 0.0 0.0 0.00 0.00 0.00 75 1018.0
20260503032503 43 0 0.0 0.0 0.00 0.00 0.00 74 1018.0
20260503032003 43 0 0.0 0.0 0.00 0.00 0.00 74 1017.9
20260503031503 43 0 0.0 0.0 0.00 0.00 0.00 74 1017.9
20260503031003 44 0 0.0 0.0 0.00 0.00 0.00 74 1017.9
20260503030503 44 0 0.0 0.0 0.00 0.00 0.00 74 1017.9
20260503030218 44 0 0.0 0.0 0.00 0.00 0.00 72 1018.0
20260503025503 45 0 0.0 0.0 0.00 0.00 0.00 71 1017.9
20260503025003 45 0 0.0 0.0 0.00 0.00 0.00 71 1017.9
20260503024717 46 0 0.0 0.0 0.00 0.00 0.00 70 1017.9
20260503024003 46 0 0.0 0.0 0.00 0.00 0.00 69 1017.9
20260503023503 46 0 0.0 0.0 0.00 0.00 0.00 69 1017.9
20260503023003 46 0 0.0 0.0 0.00 0.00 0.00 68 1017.9
20260503022503 46 0 0.0 0.0 0.00 0.00 0.00 67 1017.9
20260503022003 47 0 0.0 0.0 0.00 0.00 0.00 67 1017.8
20260503021503 47 0 0.0 0.0 0.00 0.00 0.00 66 1017.8
20260503021003 47 0 0.0 0.0 0.00 0.00 0.00 65 1017.8
20260503020503 48 0 0.0 0.0 0.00 0.00 0.00 64 1017.9
20260503020218 48 0 0.0 0.0 0.00 0.00 0.00 63 1017.8
20260503015503 49 0 0.0 0.0 0.00 0.00 0.00 61 1017.7
20260503015003 49 0 0.0 0.0 0.00 0.00 0.00 60 1017.6
20260503014503 50 0 0.0 0.0 0.00 0.00 0.00 59 1017.6
20260503014003 50 0 0.0 0.0 0.00 0.00 0.00 58 1017.6